[Date Prev][Date Next][Thread Prev][Thread Next] - [Date Index][Thread Index][Author Index]
2 Line ISS Keps 6-21
- Subject: [sarex] 2 Line ISS Keps 6-21
- From: "Dave Larsen PhD" <doc@xxxxxxxxxxx>
- Date: Tue, 21 Jun 2005 04:35:58 -0700
ISS
1 25544U 98067A 05172.30995569 .00016312 00000-0 12100-3 0 7359
2 25544 051.6458 239.7696 0003903 286.3044 157.4343 15.73043633376339
----
Via the sarex mailing list at AMSAT.ORG courtesy of AMSAT-NA.
To unsubscribe, send "unsubscribe sarex" to Majordomo@amsat.org
AMSAT Home